Industrial Equipment Auction in West Sacramento, California

Lot #0124: Alkota Cleaning Systems 8251 NG UL Electric Driven Gas Fired Hot Water High Pressure Washer

Bidding is closed.
High Bid:$1,060.00
NA
Bidding Ended: Thu, Feb 22  10:35:00 am PT
High Bidder: Freddyxj
Bid Increment: $50.00
Starting Bid: $5.00
Item Location: West Sacramento, CA 95605
Item has been viewed 636 times.

Alkota Cleaning Systems 8251 NG UL Electric Driven Gas Fired Hot Water High Pressure Washer 

  • Model: 8251 NG UL
  • Pressure: 2500 PSI
  • Flow: 8 GPM
  • Power:
    • 460V
    • 60 Hz
    • 17.5 Amp
    • 3 Phase
  • Discharge Temperature: 200 Degree Fahrenheit Max
  • Cleaning Solution: General purpose cleaner of degreaser with PH between 5 to 11
  • Firing Rate: 660,000 BTU/HR
  • Floor Type: Non-Combustible
  • Width: 69”
  • Length: 30”
  • Height: 84”
Bid Date Bid Amount Bidder
Feb 21, 2024 - 9:56:36 PM $1,060.00 iFreddyxj
Feb 21, 2024 - 9:56:36 PM $1,050.00 ipmw
Feb 21, 2024 - 9:56:34 PM $1,010.00 ipmw
Feb 21, 2024 - 9:56:34 PM $1,000.00 iFreddyxj
Feb 21, 2024 - 9:56:32 PM $990.00 ipmw
Feb 21, 2024 - 9:56:32 PM $980.00 iFreddyxj
Feb 21, 2024 - 9:56:31 PM $970.00 ipmw
Feb 21, 2024 - 9:56:31 PM $960.00 iFreddyxj
Feb 21, 2024 - 9:56:29 PM $950.00 ipmw
Feb 21, 2024 - 9:56:29 PM $940.00 iFreddyxj
Feb 21, 2024 - 9:56:27 PM $930.00 ipmw
Feb 21, 2024 - 9:56:27 PM $920.00 iFreddyxj
Feb 21, 2024 - 9:56:24 PM $910.00 ipmw
Feb 21, 2024 - 9:56:24 PM $900.00 iFreddyxj
Feb 21, 2024 - 9:56:21 PM $890.00 ipmw
Feb 21, 2024 - 9:56:21 PM $880.00 iFreddyxj
Feb 21, 2024 - 9:56:12 PM $870.00 ipmw
Feb 21, 2024 - 9:56:12 PM $860.00 iFreddyxj
Feb 21, 2024 - 9:56:06 PM $850.00 ipmw
Feb 21, 2024 - 9:56:06 PM $840.00 iFreddyxj
Feb 21, 2024 - 9:56:02 PM $830.00 ipmw
Feb 21, 2024 - 9:56:02 PM $820.00 iFreddyxj
Feb 21, 2024 - 9:55:44 PM $810.00 ipmw
Feb 21, 2024 - 9:55:44 PM $800.00 iFreddyxj
Feb 21, 2024 - 8:14:49 PM $510.00 ipmw
Feb 21, 2024 - 8:14:49 PM $500.00 iIM5150
Feb 20, 2024 - 12:00:39 PM $361.50 ipmw
Feb 20, 2024 - 12:00:39 PM $351.50 iIM5150
Feb 18, 2024 - 1:43:03 PM $310.00 ipmw
Feb 18, 2024 - 1:43:03 PM $300.00 iDurvalserafimjr
Feb 18, 2024 - 11:50:42 AM $265.00 iDurvalserafimjr
Feb 17, 2024 - 7:32:26 PM $255.00 ipmw
Feb 17, 2024 - 7:32:26 PM $251.50 iIM5150
Feb 16, 2024 - 6:06:28 PM $105.00 ipmw
Feb 16, 2024 - 6:06:28 PM $100.00 iPatrickmm
Feb 16, 2024 - 6:06:20 PM $95.00 ipmw
Feb 16, 2024 - 6:06:20 PM $90.00 iPatrickmm
Feb 16, 2024 - 6:06:18 PM $85.00 ipmw
Feb 16, 2024 - 6:06:18 PM $80.00 iPatrickmm
Feb 16, 2024 - 6:06:15 PM $75.00 ipmw
Feb 16, 2024 - 6:06:15 PM $70.00 iPatrickmm
Feb 16, 2024 - 6:06:13 PM $65.00 ipmw
Feb 16, 2024 - 6:06:13 PM $60.00 iPatrickmm
Feb 16, 2024 - 6:06:11 PM $55.00 ipmw
Feb 16, 2024 - 6:06:11 PM $50.00 iPatrickmm
Feb 16, 2024 - 6:06:09 PM $45.00 ipmw
Feb 16, 2024 - 6:06:09 PM $40.00 iPatrickmm
Feb 16, 2024 - 6:06:07 PM $35.00 ipmw
Feb 16, 2024 - 6:06:07 PM $30.00 iPatrickmm
Feb 16, 2024 - 6:06:05 PM $25.00 ipmw
Feb 16, 2024 - 6:06:05 PM $20.00 iPatrickmm
Feb 16, 2024 - 3:38:54 PM $15.00 ipmw
Feb 16, 2024 - 3:31:56 PM $10.00 iRoguesapper
Feb 16, 2024 - 3:31:57 PM $10.00 ikokiwest
Feb 16, 2024 - 3:09:19 PM $5.00 iRoguesapper
Click on any picture to see a larger image.